Terminal Aerodrome Forecast
Issued by NWS

Home | Current Version | Previous Version | Text Only | Print | Product List | Glossary On
Versions: 1 2 3 4 5 6 7 8 9 10 11 12 13 14 15 16 17 18 19 20
307
FTUS42 KJAX 250537
TAFVQQ
TAF
KVQQ 250537Z 2506/2606 00000KT P6SM SCT030 BKN045
      TEMPO 2506/2510 3SM BR BKN030
     FM251300 13005KT P6SM SCT030 BKN050
     FM251600 14009KT P6SM BKN040
     FM252200 11008KT P6SM SCT040
     FM260000 10003KT P6SM FEW035 BKN250=

USA.gov is the U.S. government's official web portal to all federal, state and local government web resources and services.